Pasco, WA
on Wednesday, February 27, 2013

Wednesday
Previous Day Next Day
Daily Summary
 ActualAverageRecord
Temperature
Mean Temperature °F 41°F  
Max Temperature 58°F 53°F 62°F (2005)
Min Temperature 27°F 29°F 8°F (1993)
Degree Days
Heating Degree Days 22 24  
Month to date heating degree days 690 709  
Since 1 July heating degree days 3601 3860  
Cooling Degree Days 0 0  
Month to date cooling degree days 0 0  
Year to date cooling degree days 0 0  
Moisture
Dew Point 31°F   
Average Humidity 65    
Maximum Humidity 92    
Minimum Humidity 38    
Precipitation
Precipitation T in in 0.42 in (2000)
Month to date precipitation 0.06  
Year to date precipitation 0.42  
Snow
Snow 0.00 in in in ()
Snow Depth 0.00 in   
Wind
Wind Speed 3 mph   
Max Wind Speed 14 mph   
Max Gust Speed 18 mph   
Visibility 10 miles   
Events     

Key: T is trace of precipitation, MM is missing value
Source: NWS Daily Summary
Time(PST)TemperatureDew PointHumidity Pressure Visibility Wind DirectionWind SpeedGust SpeedPrecipitationEvents Conditions
12:53 AM 33.1°F 28.0°F 82% 30.24 in 10.0 miles Calm Calm - N/A   Overcast
1:53 AM 33.1°F 27.0°F 78% 30.24 in 10.0 miles SE 3.5 mph - N/A   Clear
2:53 AM 30.0°F 25.0°F 82% 30.23 in 10.0 miles South 4.6 mph - N/A   Clear
3:53 AM 36.0°F 27.0°F 70% 30.24 in 10.0 miles SSW 10.4 mph - N/A   Clear
4:53 AM 37.0°F 28.0°F 70% 30.25 in 10.0 miles SSW 6.9 mph - N/A   Clear
5:53 AM 36.0°F 27.0°F 70% 30.25 in 10.0 miles Calm Calm - N/A   Clear
6:53 AM 30.0°F 26.1°F 85% 30.27 in 10.0 miles Calm Calm - N/A   Clear
7:53 AM 30.9°F 28.0°F 89% 30.30 in 10.0 miles NNE 4.6 mph - N/A   Clear
8:53 AM 39.0°F 30.9°F 73% 30.33 in 10.0 miles NNE 5.8 mph - N/A   Clear
9:53 AM 43.0°F 32.0°F 65% 30.33 in 10.0 miles Calm Calm - N/A   Clear
10:53 AM 45.0°F 32.0°F 60% 30.32 in 10.0 miles Calm Calm - N/A   Scattered Clouds
11:53 AM 50.0°F 32.0°F 50% 30.31 in 10.0 miles South 3.5 mph - N/A   Clear
12:53 PM 53.1°F 32.0°F 45% 30.29 in 10.0 miles SW 3.5 mph - N/A   Clear
1:53 PM 55.0°F 30.9°F 40% 30.28 in 10.0 miles Calm Calm - N/A   Clear
2:53 PM 57.0°F 33.1°F 40% 30.27 in 10.0 miles SW 6.9 mph - N/A   Clear
3:53 PM 57.0°F 33.1°F 40% 30.25 in 10.0 miles WSW 3.5 mph - N/A   Clear
4:53 PM 55.9°F 30.9°F 39% 30.25 in 10.0 miles Calm Calm - N/A   Overcast
5:53 PM 52.0°F 32.0°F 47% 30.25 in 10.0 miles SSW 4.6 mph - N/A   Overcast
6:53 PM 53.1°F 32.0°F 45% 30.25 in 10.0 miles SSW 8.1 mph - N/A   Overcast
7:53 PM 51.1°F 32.0°F 48% 30.24 in 10.0 miles SSE 6.9 mph - N/A   Overcast
8:53 PM 50.0°F 33.1°F 52% 30.23 in 10.0 miles South 6.9 mph - N/A   Overcast
9:53 PM 48.9°F 34.0°F 56% 30.25 in 10.0 miles Calm Calm - N/A   Overcast
11:53 PM 48.0°F 36.0°F 63% 30.26 in 10.0 miles Calm Calm - 0.00 in   Overcast
Moon Phase
Feb. 27 Mar. 04 Mar. 11 Mar. 19 Mar. 27
Sunrise:06:38 AM (PST) Moon Rise:08:18 PM (PST)2/27
Sunset:05:40 PM (PST) Moon Set:07:06 AM (PST)2/27

Copyright © 2014 The Weather Underground, Inc.